This is the latest recevied weather packets stored in our database for station/object KA9CBS. If no packets are shown the sender has not sent any weather packets the latest 10 day(s).
| Time | Temp. | Humidity | Pressure | Rain* | Wind** | Luminosity | Snow |
|---|---|---|---|---|---|---|---|
| 1778096171 | 14.44° C | 61% | 1017.3 hPa | 0 mm | - | 199 W/m² | - |
| 1778095869 | 15° C | 61% | 1017.3 hPa | 0 mm | - | 285 W/m² | - |
| 1778095565 | 15.56° C | 58% | 1017.1 hPa | 0 mm | - | 402 W/m² | - |
| 1778095261 | 15° C | 61% | 1017.2 hPa | 0 mm | - | 422 W/m² | - |
| 1778094957 | 14.44° C | 63% | 1017 hPa | 0 mm | - | 515 W/m² | - |
| 1778094653 | 15° C | 62% | 1017 hPa | 0 mm | - | 472 W/m² | - |
| 1778094351 | 14.44° C | 61% | 1016.7 hPa | 0 mm | - | 472 W/m² | - |
| 1778094048 | 15° C | 60% | 1016.9 hPa | 0 mm | - | 574 W/m² | - |
| 1778093745 | 15° C | 62% | 1016.9 hPa | 0 mm | - | 427 W/m² | - |
| 1778093442 | 15° C | 65% | 1016.8 hPa | 0 mm | - | 558 W/m² | - |
| 1778093139 | 14.44° C | 66% | 1016.9 hPa | 0 mm | - | 592 W/m² | - |
| 1778092836 | 14.44° C | 68% | 1017.1 hPa | 0 mm | - | 596 W/m² | - |
| 1778092532 | 14.44° C | 69% | 1017.3 hPa | 0 mm | - | 624 W/m² | - |
| 1778092229 | 13.89° C | 67% | 1017.6 hPa | 0 mm | - | 575 W/m² | - |
| 1778091926 | 13.89° C | 70% | 1017.2 hPa | 0 mm | - | 825 W/m² | - |
| 1778091623 | 14.44° C | 68% | 1017.4 hPa | 0 mm | - | 449 W/m² | - |
| 1778091321 | 13.89° C | 73% | 1017.2 hPa | 0 mm | - | 386 W/m² | - |
| 1778091018 | 14.44° C | 70% | 1017.5 hPa | 0 mm | - | 480 W/m² | - |
| 1778090714 | 13.89° C | 71% | 1017.4 hPa | 0 mm | - | 423 W/m² | - |
| 1778090411 | 13.89° C | 71% | 1017.5 hPa | 0 mm | - | 359 W/m² | - |
| 1778090108 | 13.89° C | 75% | 1017.3 hPa | 0 mm | - | 524 W/m² | - |
| 1778089804 | 13.33° C | 70% | 1017.3 hPa | 0 mm | - | 432 W/m² | - |
| 1778089503 | 13.89° C | 74% | 1017.4 hPa | 0 mm | - | 398 W/m² | - |
| 1778089198 | 13.89° C | 75% | 1017.5 hPa | 0 mm | - | 492 W/m² | - |
| 1778088896 | 12.78° C | 74% | 1017.8 hPa | 0 mm | - | 384 W/m² | - |
* Rain latest hour (hover to see other rain measurements)
** Current wind speed in m/s (hover to see current wind gust speed)